Weerstation Grootegast  Weerstation Grootegast


15 daagse weersverwachting Forlì (IT)

  • Overzicht
  • Per uur
  • 15 dagen
  • Extra
  • Vergelijk
  • Kaarten
  • Dagkaart
  • Meer »
  • Info
  • Statistieken
  • Directe link
    Temp 6h Neerslag Wind  
 06:59     19:12    Daglengte: 12:13 Vandaag
08:00
18°
 
1
14:00
25°
 
3
20:00
22°
0.3 mm
2
warningclass
 07:00     19:10    Daglengte: 12:10 Morgen
02:00
19°
0.5 mm
1
warningclass
08:00
19°
6.5 mm
2
14:00
25°
1.1 mm
2
warningclass
20:00
21°
11.1 mm
1
 07:01     19:08    Daglengte: 12:07 Dinsdag 22 Sep
02:00
18°
6.5 mm
1
08:00
19°
 
1
14:00
25°
8.1 mm
1
20:00
20°
19.1 mm
2
 07:02     19:06    Daglengte: 12:04 Woensdag 23 Sep
02:00
18°
 
1
Locatie info
Region: Emilia Romagna
Latitude: 44.2282°N
Longitude: 12.0421°E
27 masl
Postcode: 47122
Temp/Neerslag /Baro Onweer/Dauwpunt
    Temp Baro 1h Neerslag Dauwpunt Wind UV Bewolking  
 06:59     19:12    Daglengte: 12:13 Vandaag
06:00
16°
1016.1 hPa   13.2°
1
Windvlaag: 0.8 m/s
25%
07:00
16°
1016.0 hPa   13.0°
1
Windvlaag: 0.6 m/s
15%
08:00
18°
1016.1 hPa   13.3°
1
Windvlaag: 0.7 m/s
22%
09:00
20°
1016.1 hPa   12.7°
1
Windvlaag: 1 m/s
44%
10:00
22°
1016.1 hPa   13.4°
1
Windvlaag: 0.1 m/s
48%
11:00
23°
1016.1 hPa   14.8°
2
Windvlaag: -0.4 m/s
42%
12:00
25°
1015.9 hPa   16.1°
2
Windvlaag: -0.6 m/s
45%
13:00
25°
1015.6 hPa
14%
16.1°
3
Windvlaag: -0.4 m/s
56%
14:00
25°
1015.1 hPa   15.8°
3
Windvlaag: -0.3 m/s
40%
15:00
26°
1014.7 hPa   16.1°
3
Windvlaag: -0.8 m/s
34%
16:00
25°
1014.5 hPa
20%
16.5°
3
Windvlaag: 0.6 m/s
47%
17:00
25°
1014.2 hPa
81%
15.9°
3
Windvlaag: 0.4 m/s
69%
18:00
24°
1014.0 hPa 0.3 mm
75%
15.7°
2
Windvlaag: 0.5 m/s
55%
19:00
23°
1014.3 hPa
62%
16.2°
2
Windvlaag: 0.7 m/s
67%
20:00
22°
1014.5 hPa
56%
16.6°
2
Windvlaag: 1.3 m/s
63%
21:00
21°
1015.0 hPa
22%
17.1°
1
Windvlaag: 1.5 m/s
72%
22:00
20°
1015.2 hPa
25%
17.5°
1
Windvlaag: 1.6 m/s
56%
23:00
20°
1015.1 hPa
68%
17.2°
1
Windvlaag: 0.7 m/s
31%
 07:00     19:10    Daglengte: 12:10 Morgen
00:00
20°
1015.1 hPa
68%
17.0°
1
Windvlaag: 0.5 m/s
22%
01:00
19°
1015.0 hPa 0.5 mm
65%
16.7°
1
Windvlaag: 0.4 m/s
33%
02:00
19°
1015.0 hPa
66%
16.7°
1
Windvlaag: 0.4 m/s
41%
03:00
18°
1014.9 hPa 0.6 mm
64%
16.7°
1
Windvlaag: -0.5 m/s
42% warningclass
04:00
19°
1014.8 hPa 0.9 mm
30%
17.2°
1
Windvlaag: -0.3 m/s
34% warningclass
05:00
18°
1014.6 hPa 1.4 mm
73%
17.1°
2
Windvlaag: -0.2 m/s
54% warningclass
06:00
18°
1014.8 hPa 1.7 mm
76%
17.0°
2
Windvlaag: 0.2 m/s
54% warningclass
07:00
18°
1015.0 hPa 1.2 mm
80%
17.2°
2
Windvlaag: 0.4 m/s
55% warningclass
08:00
19°
1015.3 hPa 0.7 mm
76%
17.2°
2
Windvlaag: 0.4 m/s
56%
09:00
20°
1015.6 hPa
73%
17.3°
1
Windvlaag: -0.1 m/s
53%
10:00
21°
1015.9 hPa
31%
16.9°
2
Windvlaag: -1.3 m/s
44%
11:00
23°
1016.0 hPa
26%
16.8°
1
Windvlaag: -1.8 m/s
30%
12:00
24°
1015.9 hPa
65%
16.9°
2
Windvlaag: -2.1 m/s
38%
13:00
24°
1015.6 hPa 0.6 mm
35%
17.6°
2
Windvlaag: -2.3 m/s
49% warningclass
14:00
25°
1015.2 hPa 0.6 mm
79%
18.0°
2
Windvlaag: -2.1 m/s
66% warningclass
15:00
24°
1014.9 hPa 1.1 mm
43%
18.3°
2
Windvlaag: -1.7 m/s
65% warningclass
16:00
23°
1014.7 hPa 1.7 mm
81%
18.8°
2
Windvlaag: -1.2 m/s
81% warningclass
17:00
23°
1014.6 hPa 1.3 mm
81%
18.7°
2
Windvlaag: -1.4 m/s
78% warningclass
18:00
22°
1014.9 hPa 3.7 mm
82%
19.7°
2
Windvlaag: -0.9 m/s
84% warningclass
19:00
21°
1014.8 hPa
77%
19.3°
1
Windvlaag: -0.4 m/s
84%
20:00
21°
1015.1 hPa 3.3 mm
24%
19.4°
1
Windvlaag: 0.1 m/s
81%
21:00
20°
1015.4 hPa
34%
19.1°
1
Windvlaag: 0.3 m/s
56%
22:00
20°
1015.5 hPa 3.2 mm
72%
18.7°
1
Windvlaag: 0.3 m/s
67%
23:00
19°
1015.8 hPa 3.3 mm
90%
18.1°
1
Windvlaag: 0.7 m/s
55%
 07:01     19:08    Daglengte: 12:07 Dinsdag 22 Sep
00:00
19°
1015.7 hPa
74%
18.1°
1
Windvlaag: 0.9 m/s
62%
01:00
18°
1015.5 hPa
68%
17.7°
1
Windvlaag: 0.7 m/s
61% warningclass
02:00
18°
1015.2 hPa
77%
17.5°
1
Windvlaag: 0.6 m/s
65%
03:00
18°
1014.9 hPa
37%
17.3°
1
Windvlaag: 0.6 m/s
63%
04:00
18°
1014.6 hPa
32%
16.9°
1
Windvlaag: -0.1 m/s
65%
05:00
18°
1014.4 hPa
68%
16.9°
1
Windvlaag: -0.2 m/s
72%
06:00
18°
1014.4 hPa
35%
16.7°
1
Windvlaag: 0.1 m/s
79%
07:00
17°
1014.7 hPa
80%
16.4°
1
Windvlaag: 1.1 m/s
81%
08:00
19°
1014.8 hPa
26%
17.1°
1
Windvlaag: 1.4 m/s
78%
09:00
19°
1015.1 hPa
28%
17.0°
1
Windvlaag: 0.5 m/s
35%
10:00
20°
1015.2 hPa
22%
17.2°
1
Windvlaag: 0.3 m/s
36%
11:00
22°
1015.1 hPa
24%
16.8°
1
Windvlaag: 0.4 m/s
21%
12:00
23°
1014.6 hPa
30%
16.5°
2
Windvlaag: 0.6 m/s
23%
13:00
25°
1014.0 hPa 5.0 mm
81%
16.4°
1
Windvlaag: 0.6 m/s
50%
14:00
25°
1013.5 hPa 3.1 mm
99%
15.5°
1
Windvlaag: 0.6 m/s
78%
15:00
24°
1013.0 hPa 3.3 mm
100%
16.0°
2
Windvlaag: 0.7 m/s
72%
16:00
24°
1012.6 hPa 3.2 mm
100%
16.8°
2
Windvlaag: 0.6 m/s
78%
17:00
24°
1012.3 hPa 3.2 mm
100%
16.5°
2
Windvlaag: 0.6 m/s
73%
18:00
23°
1012.3 hPa 3.5 mm
97%
16.1°
2
Windvlaag: 1.3 m/s
72%
19:00
22°
1012.1 hPa
39%
16.0°
1
Windvlaag: 0.8 m/s
64%
20:00
20°
1012.5 hPa 5.8 mm
29%
16.4°
2
Windvlaag: 0.9 m/s
49%
21:00
20°
1012.5 hPa
25%
16.2°
2
Windvlaag: 5.6 m/s
59%
22:00
19°
1012.3 hPa
21%
16.0°
1
Windvlaag: 5.4 m/s
68%
23:00
19°
1012.2 hPa
21%
15.7°
1
Windvlaag: 6 m/s
67%
 07:02     19:06    Daglengte: 12:04 Woensdag 23 Sep
00:00
19°
1012.0 hPa
21%
15.4°
1
Windvlaag: 4.6 m/s
54%
01:00
18°
1011.8 hPa
21%
15.2°
1
Windvlaag: 10.9 m/s
66%
02:00
18°
1011.7 hPa
21%
15.0°
1
Windvlaag: 1.4 m/s
81%
03:00
19°
1011.4 hPa 17.2 mm
100%
15.4°
1
Windvlaag: 9.7 m/s
84%
04:00
18°
1011.2 hPa 17.3 mm
100%
15.4°
1
Windvlaag: 5.8 m/s
89%
05:00
18°
1011.0 hPa 17.3 mm
100%
15.4°
1
Windvlaag: 4.9 m/s
86%
Temp/Neerslag /Baro Onweer/Dauwpunt
    Temp Baro Neerslag Dauwpunt Wind Bewolking  
 06:59     19:12    Daglengte: 12:13 Vandaag
08:00
18°
1016.1 hPa   13.3°
1
22%
11:00
23°
1016.1 hPa   14.8°
2
42%
14:00
25°
1015.1 hPa   15.8°
3
40%
17:00
25°
1014.2 hPa   15.9°
3
69%
20:00
22°
1014.5 hPa 0.3 mm 16.6°
2
63% warningclass
23:00
20°
1015.1 hPa   17.2°
1
31%
 07:00     19:10    Daglengte: 12:10 Morgen
02:00
19°
1015.0 hPa 0.5 mm 16.7°
1
41% warningclass
05:00
18°
1014.6 hPa 2.9 mm 17.1°
2
54% warningclass
08:00
19°
1015.3 hPa 3.6 mm 17.2°
2
56%
11:00
23°
1016.0 hPa   16.8°
1
30%
14:00
25°
1015.2 hPa 1.1 mm 18.0°
2
66% warningclass
17:00
23°
1014.6 hPa 4.1 mm 18.7°
2
78% warningclass
20:00
21°
1015.1 hPa 7.0 mm 19.4°
1
81%
23:00
19°
1015.8 hPa 6.5 mm 18.1°
1
55%
 07:01     19:08    Daglengte: 12:07 Dinsdag 22 Sep
02:00
18°
1015.2 hPa   17.5°
1
65%
05:00
18°
1014.4 hPa   16.9°
1
72%
08:00
19°
1014.8 hPa   17.1°
1
78%
11:00
22°
1015.1 hPa   16.8°
1
21%
14:00
25°
1013.5 hPa 8.1 mm 15.5°
1
78%
17:00
24°
1012.3 hPa 9.7 mm 16.5°
2
73%
20:00
20°
1012.5 hPa 9.3 mm 16.4°
2
49%
23:00
19°
1012.2 hPa   15.7°
1
67%
 07:02     19:06    Daglengte: 12:04 Woensdag 23 Sep
02:00
18°
1011.7 hPa   15.0°
1
81%
05:00
18°
1011.0 hPa 51.8 mm 15.4°
1
86%
08:00
18°
1010.8 hPa 51.9 mm 15.7°
1
91%
11:00
23°
1010.7 hPa 10.3 mm 14.8°
4
84%
14:00
25°
1010.5 hPa 10.3 mm 13.6°
5
81%
17:00
23°
1010.0 hPa 10.3 mm 14.6°
4
86%
20:00
21°
1009.6 hPa 10.3 mm 15.0°
3
91%
23:00
19°
1009.5 hPa 10.3 mm 15.0°
2
64%
 07:03     19:04    Daglengte: 12:01 Donderdag 24 Sep
02:00
18°
1009.4 hPa 10.3 mm 14.9°
2
36%
05:00
19°
1009.0 hPa 10.3 mm 15.2°
2
61%
08:00
19°
1008.8 hPa 10.3 mm 15.6°
2
86%
11:00
23°
1008.5 hPa 10.3 mm 15.9°
3
86%
14:00
26°
1008.2 hPa 10.3 mm 15.2°
3
86%
17:00
24°
1007.5 hPa 10.3 mm 16.2°
3
54%
20:00
21°
1006.8 hPa 10.3 mm 16.4°
2
22%
23:00
20°
1006.1 hPa 10.3 mm 16.6°
2
56%
 07:04     19:02    Daglengte: 11:58 Vrijdag 25 Sep
02:00
19°
1005.2 hPa 10.4 mm 16.6°
1
90%
05:00
19°
1003.9 hPa 10.4 mm 15.5°
3
91%
08:00
20°
1002.7 hPa 10.4 mm 14.0°
5
92%
11:00
22°
1001.3 hPa 10.4 mm 12.9°
6
64%
14:00
24°
999.9 hPa 10.4 mm 11.1°
6
36%
17:00
21°
999.1 hPa 10.4 mm 10.2°
5
46%
20:00
18°
998.6 hPa 10.4 mm 9.2°
4
55%
23:00
16°
997.7 hPa 10.4 mm 8.3°
3
38%
 07:06     19:01    Daglengte: 11:55 Zaterdag 26 Sep
02:00
14°
996.6 hPa 10.4 mm 7.5°
2
21%
05:00
13°
997.2 hPa 10.4 mm 8.2°
3
57%
08:00
12°
997.8 hPa 10.4 mm 8.9°
4
92%
11:00
14°
998.7 hPa 10.4 mm 7.0°
5
91%
14:00
16°
999.6 hPa 11.4 mm 4.5°
5
90%
17:00
14°
1000.8 hPa 12.1 mm 6.8°
4
91%
20:00
13°
1002.0 hPa 12.1 mm 8.2°
2
91%
23:00
13°
1003.1 hPa 12.1 mm 7.1°
3
86%
 07:07     18:59    Daglengte: 11:52 Zondag 27 Sep
02:00
12°
1004.2 hPa 13.5 mm 5.7°
4
80%
05:00
12°
1005.8 hPa   5.1°
3
56%
08:00
11°
1007.6 hPa 30.2 mm 4.4°
1
31%
14:00
19°
1009.5 hPa 30.7 mm 3.8°
2
39%
20:00
14°
1011.6 hPa 30.8 mm 5.7°
2
0%
 07:08     18:57    Daglengte: 11:49 Maandag 28 Sep
02:00
10°
Voelt als: 9.0°
1014.1 hPa 31.5 mm 4.1°
2
0%
08:00
Voelt als: 8.3°
1015.4 hPa 32.6 mm 4.3°
2
2%
14:00
22°
1016.0 hPa 33.0 mm 3.5°
2
0%
20:00
16°
1016.7 hPa 36.0 mm 8.4°
2
24%
 07:09     18:55    Daglengte: 11:46 Dinsdag 29 Sep
02:00
15°
1017.8 hPa 36.3 mm 8.7°
4
0%
08:00
14°
1018.1 hPa 36.7 mm 9.0°
2
2%
14:00
19°
1016.1 hPa 37.3 mm 7.5°
3
1%
20:00
14°
1015.9 hPa 37.5 mm 8.6°
3
0%
 07:10     18:53    Daglengte: 11:43 Woensdag 30 Sep
02:00
13°
1016.7 hPa 0.8 mm 9.6°
1
31%
08:00
13°
1016.8 hPa 1.1 mm 9.6°
1
32%
14:00
21°
1016.4 hPa 1.3 mm 9.7°
2
34%
20:00
16°
1015.8 hPa 0.8 mm 9.8°
1
35%
 07:12     18:51    Daglengte: 11:39 Donderdag 01 Okt
02:00
14°
1015.9 hPa 1.2 mm 10.2°
1
30%
08:00
14°
1015.5 hPa 1.5 mm 10.5°
1
35%
14:00
20°
1014.9 hPa 1.8 mm 11.4°
2
41%
20:00
16°
1014.2 hPa 2.2 mm 11.1°
1
42%
 07:13     18:49    Daglengte: 11:36 Vrijdag 02 Okt
02:00
14°
1014.8 hPa 1.0 mm 10.7°
1
37%
08:00
13°
1015.4 hPa 0.7 mm 10.3°
1
33%
14:00
21°
1015.8 hPa 0.9 mm 10.4°
2
35%
20:00
16°
1015.5 hPa 0.6 mm 10.1°
1
32%
 07:14     18:48    Daglengte: 11:34 Zaterdag 03 Okt
02:00
13°
1016.2 hPa 0.3 mm 9.6°
0
19%
08:00
13°
1016.3 hPa 0.5 mm 9.8°
1
22%
14:00
22°
1016.5 hPa 0.2 mm 10.7°
1
22%
20:00
16°
1016.4 hPa 0.3 mm 11.0°
1
28%
 07:15     18:46    Daglengte: 11:31 Zondag 04 Okt
02:00
14°
1017.1 hPa 0.3 mm 10.8°
0
17%
08:00
13°
1017.3 hPa 0.3 mm 10.5°
1
22%
14:00
23°
1017.5 hPa 0.2 mm 11.6°
1
30%
20:00
17°
1017.1 hPa 0.6 mm 11.9°
1
32%
 07:16     18:44    Daglengte: 11:28 Maandag 05 Okt
02:00
15°
1017.5 hPa 0.2 mm 11.8°
1
27%
  CAPE Lifted Index Hail Supercell Tornado SRH 3km CL BTM PRES CL TOP PRES Swiss DWD icon SMHI TS
 06:59     19:12    Daglengte: 12:13 Vandaag
06:00 0 J/kg 1.5 K 0 % 0 % 0 % 0 m²/s² 0 0 3.42 1
07:00 0 J/kg 1.5 K 0 % 0 % 0 % 0 m²/s² 0 0 3.21 1
08:00 0 J/kg 1.1 K 0 % 0 % 0 % 0 m²/s² 0 0 2.27 3
09:00 0 J/kg 0.7 K 0 % 0 % 0 % 0 m²/s² 0 0 1 2
10:00 0 J/kg 0.5 K 0 % 0 % 0 % 0 m²/s² 0 0 0.71 2
11:00 0 J/kg -0.1 K 0 % 0 % 0 % 0 m²/s² 0 0 0.29 3
12:00 82 J/kg -1.3 K 0 % 0 % 0 % 0 m²/s² 0 0 -0.94 3
13:00 259 J/kg -1.9 K 0 % 0 % 0 % 0 m²/s² 0 0 -1.69 3
14:00 286 J/kg -2.6 K 0 % 0 % 0 % 0 m²/s² 0 0 -1.94 3
15:00 331 J/kg -3.1 K 0 % 0 % 0 % 0 m²/s² 0 0 -2.38 3
16:00 447 J/kg -3.7 K 0 % 0 % 0 % 0 m²/s² 0 0 -3.4 3
17:00 334 J/kg -3.4 K 0 % 0 % 0 % 0 m²/s² 0 0 -3.37 80
18:00 221 J/kg -3.1 K 0 % 0 % 0 % 0 m²/s² 0 0 -1.54 3
19:00 263 J/kg -2.8 K 0 % 0 % 0 % 0 m²/s² 0 0 -2.44 2
20:00 411 J/kg -3.0 K 0 % 0 % 0 % 0 m²/s² 0 0 -2.34 3
21:00 517 J/kg -3.2 K 0 % 0 % 0 % 0 m²/s² 0 0 -2.99 3
22:00 472 J/kg -2.5 K 0 % 0 % 0 % 0 m²/s² 0 0 -1.96 2
23:00 394 J/kg -2.9 K 0 % 0 % 0 % 0 m²/s² 0 0 -1.91 2
 07:00     19:10    Daglengte: 12:10 Morgen
00:00 388 J/kg -3.3 K 0 % 0 % 0 % 0 m²/s² 0 0 -1.83 2
01:00 454 J/kg -3.4 K 0 % 0 % 0 % 0 m²/s² 0 0 -1.99 3
02:00 592 J/kg -3.6 K 0 % 0 % 0 % 0 m²/s² 0 0 -2.22 3
03:00 490 J/kg -3.7 K 0 % 0 % 0 % 0 m²/s² 0 0 -2.2 3
04:00 464 J/kg -4.3 K 0 % 0 % 0 % 0 m²/s² 0 0 -2.98 3
05:00 327 J/kg -4.0 K 0 % 0 % 0 % 0 m²/s² 0 0 -2.74 95
06:00 266 J/kg -3.9 K 0 % 0 % 0 % 0 m²/s² 0 0 -2.94 95
07:00 211 J/kg -3.9 K 0 % 0 % 0 % 0 m²/s² 0 0 -2.85 95
08:00 121 J/kg -3.2 K 0 % 0 % 0 % 0 m²/s² 0 0 -2.06 80
09:00 381 J/kg -3.0 K 0 % 0 % 0 % 0 m²/s² 0 0 -1.74 3
10:00 707 J/kg -3.3 K 0 % 0 % 0 % 0 m²/s² 0 0 -2.04 3
11:00 977 J/kg -4.1 K 0 % 0 % 0 % 0 m²/s² 0 0 -2.84 3
12:00 1065 J/kg -4.5 K 0 % 0 % 0 % 0 m²/s² 0 0 -3.3 3
13:00 1141 J/kg -4.6 K 0 % 0 % 0 % 0 m²/s² 0 0 -3.76 3
14:00 1217 J/kg -4.6 K 0 % 0 % 0 % 0 m²/s² 0 0 -3.49 3
15:00 1485 J/kg -5.5 K 0 % 0 % 0 % 0 m²/s² 0 0 -4.54 3
16:00 1474 J/kg -5.2 K 0 % 0 % 0 % 0 m²/s² 0 0 -3.49 80
17:00 1537 J/kg -5.9 K 0 % 0 % 0 % 0 m²/s² 0 0 -5.45 80
18:00 898 J/kg -3.7 K 0 % 0 % 0 % 0 m²/s² 0 0 -2.65 80
19:00 0 J/kg 0.9 K 0 % 0 % 0 % 0 m²/s² 0 0 2.46 3
20:00 0 J/kg -0.2 K 0 % 0 % 0 % 0 m²/s² 0 0 1.6 3
21:00 0 J/kg 0.2 K 0 % 0 % 0 % 0 m²/s² 0 0 1.19 3
22:00 0 J/kg -0.9 K 0 % 0 % 0 % 0 m²/s² 0 0 0.09 80
23:00 0 J/kg -0.6 K 0 % 0 % 0 % 0 m²/s² 0 0 0.3 80
 07:01     19:08    Daglengte: 12:07 Dinsdag 22 Sep
00:00 0 J/kg -1.1 K 0 % 0 % 0 % 0 m²/s² 0 0 -0.14 80
01:00 0 J/kg -0.6 K 0 % 0 % 0 % 0 m²/s² 0 0 0.3 95
02:00 0 J/kg -0.1 K 0 % 0 % 0 % 0 m²/s² 0 0 1.07 80
03:00 1 J/kg -0.8 K 0 % 0 % 0 % 0 m²/s² 0 0 0.19 3
04:00 62 J/kg -1.2 K 0 % 0 % 0 % 0 m²/s² 0 0 -0.72 3
05:00 0 J/kg -0.7 K 0 % 0 % 0 % 0 m²/s² 0 0 0.11 3
06:00 0 J/kg -0.8 K 0 % 0 % 0 % 0 m²/s² 0 0 0.25 3
07:00 0 J/kg -0.6 K 0 % 0 % 0 % 0 m²/s² 0 0 0.3 3
08:00 0 J/kg -0.7 K 0 % 0 % 0 % 0 m²/s² 0 0 0.26 3
09:00 20 J/kg -1.0 K 0 % 0 % 0 % 0 m²/s² 0 0 -0.04 3
10:00 25 J/kg -0.9 K 0 % 0 % 0 % 0 m²/s² 0 0 0.57 3
11:00 167 J/kg -1.0 K 0 % 0 % 0 % 0 m²/s² 0 0 0.77 3
12:00 441 J/kg -2.2 K 0 % 0 % 0 % 0 m²/s² 0 0 -0.31 2
13:00 552 J/kg -2.5 K 0 % 0 % 0 % 0 m²/s² 0 0 -0.55 3
14:00 644 J/kg -2.6 K 0 % 0 % 0 % 0 m²/s² 0 0 -0.95 80
15:00 723 J/kg -3.1 K 0 % 0 % 0 % 0 m²/s² 0 0 -1.72 80
16:00 495 J/kg -2.6 K 0 % 0 % 0 % 0 m²/s² 0 0 -1.19 3
17:00 389 J/kg -2.2 K 0 % 0 % 0 % 0 m²/s² 0 0 -1.3 80
18:00 112 J/kg -1.4 K 0 % 0 % 0 % 0 m²/s² 0 0 -1.28 80
19:00 0 J/kg -0.4 K 0 % 0 % 0 % 0 m²/s² 0 0 0.5 2
20:00 45 J/kg -0.1 K 0 % 0 % 0 % 0 m²/s² 0 0 0.41 1
21:00 105 J/kg -0.1 K 0 % 0 % 0 % 0 m²/s² 0 0 0.83 1
22:00 65 J/kg 0.3 K 0 % 0 % 0 % 0 m²/s² 0 0 1.11 2
23:00 73 J/kg -0.5 K 0 % 0 % 0 % 0 m²/s² 0 0 -0.08 45
 07:02     19:06    Daglengte: 12:04 Woensdag 23 Sep
00:00 93 J/kg 0.4 K 0 % 0 % 0 % 0 m²/s² 0 0 1.69 45
01:00 0 J/kg 1.4 K 0 % 0 % 0 % 0 m²/s² 0 0 2.39 2
02:00 30 J/kg -0.3 K 0 % 0 % 0 % 0 m²/s² 0 0 0.9 3
03:00 202 J/kg -2.6 K 0 % 0 % 0 % 0 m²/s² 0 0 -1.55
04:00 364 J/kg -3.5 K 0 % 0 % 0 % 0 m²/s² 0 0 -2.21
05:00 455 J/kg -3.4 K 0 % 0 % 0 % 0 m²/s² 0 0 -1.87
Temp Baro Wind Neerslag
  EWN Forecast EWN WRFDA DWD ICON FMI HIRLAM MET Norway GFS
 06:59     19:12    Daglengte: 12:13 Vandaag
08:00 18.3° 1016.1 hPa 1.0 m/s 0.0 mm 19.4° 1015.7 hPa 1.1 m/s 0.0 mm 14.7° 1016.1 hPa 0.8 m/s 0.0 mm 17.3° 1016.8 hPa 1.1 m/s 0.0 mm 18.7° 1016.1 hPa 0.9 m/s 19.0° 1015.9 hPa 0.9 m/s
11:00 23.5° 1016.1 hPa 2.0 m/s 0.0 mm 25.5° 1015.3 hPa 3.9 m/s 0.0 mm 23.2° 1016.2 hPa 1.4 m/s 0.0 mm 24.0° 1016.3 hPa 3.2 m/s 0.0 mm 22.9° 1016.2 hPa 1.8 m/s 24.7° 1016.2 hPa 1.7 m/s
14:00 25.3° 1015.1 hPa 2.7 m/s 0.0 mm 26.8° 1014.7 hPa 5.4 m/s 0.0 mm 25.9° 1014.8 hPa 2.6 m/s 0.0 mm 25.2° 1015.7 hPa 3.1 m/s 0.0 mm 25.4° 1015.0 hPa 2.5 m/s 27.0° 1015.2 hPa 3.4 m/s
17:00 24.9° 1014.2 hPa 2.9 m/s 0.0 mm 24.6° 1014.5 hPa 5.0 m/s 0.6 mm 24.4° 1013.9 hPa 3.4 m/s 0.2 mm 25.4° 1014.6 hPa 4.5 m/s 0.0 mm 25.3° 1014.0 hPa 2.2 m/s 25.3° 1013.7 hPa 4.1 m/s
20:00 21.8° 1014.5 hPa 2.0 m/s 0.3 mm 21.8° 1014.4 hPa 1.9 m/s 3.6 mm 21.7° 1014.4 hPa 2.1 m/s 0.2 mm 22.3° 1014.9 hPa 1.3 m/s 0.0 mm 21.6° 1014.4 hPa 2.1 m/s 20.0° 1014.1 hPa 2.3 m/s
23:00 20.0° 1015.1 hPa 1.0 m/s 0.0 mm 19.4° 1014.9 hPa 0.9 m/s 5.7 mm 19.7° 1015.1 hPa 0.9 m/s 0.0 mm 20.3° 1015.0 hPa 0.7 m/s 0.0 mm 20.0° 1015.1 hPa 1.3 m/s 20.0° 1015.2 hPa 1.6 m/s
 07:00     19:10    Daglengte: 12:10 Morgen
02:00 18.7° 1015.0 hPa 1.4 m/s 0.5 mm 18.4° 1015.0 hPa 1.4 m/s 6.5 mm 18.6° 1015.2 hPa 0.7 m/s 0.2 mm 19.6° 1014.7 hPa 1.7 m/s 0.0 mm 18.3° 1015.0 hPa 1.4 m/s 18.6° 1014.8 hPa 0.9 m/s
05:00 18.3° 1014.6 hPa 1.7 m/s 2.9 mm 17.3° 1014.6 hPa 2.1 m/s 6.5 mm 18.2° 1014.5 hPa 1.9 m/s 2.4 mm 18.4° 1014.2 hPa 1.2 m/s 0.0 mm 18.1° 1014.9 hPa 1.4 m/s 17.7° 1014.8 hPa 1.4 m/s
08:00 18.8° 1015.3 hPa 1.5 m/s 3.6 mm 19.6° 1015.1 hPa 2.1 m/s 6.5 mm 18.5° 1015.3 hPa 1.4 m/s 5.4 mm 18.8° 1014.7 hPa 1.5 m/s 0.0 mm 18.6° 1016.0 hPa 1.4 m/s 18.5° 1015.0 hPa 1.6 m/s
11:00 22.6° 1016.0 hPa 1.5 m/s 0.0 mm 24.6° 1014.8 hPa 0.3 m/s 6.5 mm 21.2° 1015.8 hPa 1.7 m/s 0.1 mm 24.7° 1015.4 hPa 1.6 m/s 0.0 mm 22.5° 1016.3 hPa 0.8 m/s 23.9° 1015.5 hPa 2.1 m/s
14:00 24.5° 1015.2 hPa 2.0 m/s 1.1 mm 28.0° 1013.7 hPa 3.1 m/s 6.5 mm 23.3° 1015.2 hPa 2.2 m/s 0.0 mm 25.1° 1014.3 hPa 2.1 m/s 0.0 mm 24.4° 1015.5 hPa 1.0 m/s 27.5° 1015.0 hPa 2.5 m/s
17:00 23.3° 1014.6 hPa 1.9 m/s 4.1 mm 23.8° 1014.1 hPa 3.9 m/s 13.6 mm 22.3° 1014.6 hPa 0.4 m/s 1.4 mm 23.3° 1013.6 hPa 2.2 m/s 0.0 mm 23.4° 1014.9 hPa 1.8 m/s 26.3° 1014.1 hPa 3.1 m/s
20:00 20.6° 1015.1 hPa 1.2 m/s 7.0 mm 21.0° 1012.8 hPa 3.6 m/s 42.6 mm 20.5° 1015.2 hPa 1.1 m/s 0.9 mm 21.7° 1014.0 hPa 0.6 m/s 0.0 mm 19.4° 1015.6 hPa 1.0 m/s 22.0° 1014.2 hPa 1.6 m/s
23:00 19.2° 1015.8 hPa 1.4 m/s 6.5 mm 19.0° 1014.9 hPa 2.2 m/s 44.3 mm 19.3° 1015.6 hPa 1.4 m/s 1.1 mm 18.7° 1016.0 hPa 0.8 m/s 20.2° 1015.0 hPa 1.5 m/s
 07:01     19:08    Daglengte: 12:07 Dinsdag 22 Sep
02:00 18.3° 1015.2 hPa 1.0 m/s 0.0 mm 18.2° 1014.0 hPa 2.7 m/s 44.3 mm 18.6° 1015.1 hPa 1.1 m/s 1.1 mm 17.6° 1015.7 hPa 0.7 m/s 19.1° 1014.5 hPa 1.8 m/s
05:00 17.8° 1014.4 hPa 1.3 m/s 0.0 mm 17.7° 1012.7 hPa 3.4 m/s 44.3 mm 18.3° 1014.5 hPa 1.3 m/s 0.0 mm 16.9° 1014.9 hPa 1.1 m/s 18.3° 1013.7 hPa 2.6 m/s
08:00 18.5° 1014.8 hPa 1.2 m/s 0.0 mm 19.0° 1013.6 hPa 2.9 m/s 44.3 mm 18.5° 1014.5 hPa 1.2 m/s 0.0 mm 17.6° 1015.4 hPa 0.6 m/s 18.9° 1014.2 hPa 2.3 m/s
11:00 22.0° 1015.1 hPa 1.2 m/s 0.0 mm 23.2° 1013.5 hPa 1.0 m/s 44.3 mm 21.4° 1014.8 hPa 1.6 m/s 0.0 mm 21.9° 1015.7 hPa 1.1 m/s 24.8° 1014.5 hPa 2.0 m/s
14:00 25.1° 1013.5 hPa 1.2 m/s 8.1 mm 25.8° 1012.2 hPa 3.0 m/s 44.4 mm 23.6° 1013.7 hPa 1.3 m/s 0.2 mm 25.3° 1013.6 hPa 0.8 m/s 28.4° 1013.7 hPa 1.4 m/s
17:00 24.0° 1012.3 hPa 1.7 m/s 9.7 mm 26.6° 1010.8 hPa 2.7 m/s 45.7 mm 22.6° 1012.6 hPa 0.7 m/s 0.7 mm 23.9° 1012.5 hPa 1.7 m/s 26.0° 1011.9 hPa 1.3 m/s
20:00 20.3° 1012.5 hPa 1.9 m/s 9.3 mm 20.5° 1011.7 hPa 3.2 m/s 50.4 mm 20.3° 1012.6 hPa 1.3 m/s 0.2 mm 20.2° 1012.6 hPa 1.8 m/s 21.8° 1012.0 hPa 2.4 m/s
23:00 19.3° 1012.2 hPa 1.2 m/s 0.0 mm 20.1° 1011.3 hPa 2.2 m/s 51.6 mm 18.4° 1012.6 hPa 1.0 m/s 0.0 mm 19.4° 1012.2 hPa 1.1 m/s 20.0° 1012.1 hPa 2.9 m/s
 07:02     19:06    Daglengte: 12:04 Woensdag 23 Sep
02:00 18.2° 1011.7 hPa 0.8 m/s 0.0 mm 18.3° 1010.2 hPa 1.6 m/s 51.6 mm 16.9° 1011.9 hPa 1.0 m/s 0.0 mm 18.5° 1011.8 hPa 0.5 m/s 19.2° 1011.4 hPa 3.0 m/s
05:00 18.3° 1011.0 hPa 0.9 m/s 51.8 mm 18.0° 1008.6 hPa 1.6 m/s 51.8 mm 18.4° 1011.4 hPa 0.8 m/s 19.1° 1010.7 hPa 2.7 m/s
08:00 18.5° 1010.8 hPa 1.1 m/s 51.9 mm 20.0° 1009.4 hPa 1.5 m/s 51.9 mm 18.2° 1011.0 hPa 1.0 m/s 19.1° 1010.9 hPa 2.0 m/s
11:00 22.8° 1010.7 hPa 3.9 m/s 10.3 mm 22.5° 1010.7 hPa 4.0 m/s 25.9° 1010.6 hPa 3.4 m/s 10.3 mm
14:00 24.9° 1010.5 hPa 5.5 m/s 10.3 mm 24.6° 1010.6 hPa 5.5 m/s 28.2° 1009.9 hPa 5.2 m/s 10.3 mm
17:00 23.0° 1010.0 hPa 4.3 m/s 10.3 mm 22.7° 1010.1 hPa 4.1 m/s 25.9° 1009.4 hPa 6.9 m/s 10.3 mm
20:00 20.8° 1009.6 hPa 2.8 m/s 10.3 mm 20.8° 1009.6 hPa 2.7 m/s 21.0° 1009.6 hPa 4.4 m/s 10.3 mm
23:00 19.4° 1009.5 hPa 2.3 m/s 10.3 mm 19.3° 1009.4 hPa 2.1 m/s 20.0° 1011.1 hPa 4.0 m/s 10.3 mm
 07:03     19:04    Daglengte: 12:01 Donderdag 24 Sep
02:00 18.0° 1009.4 hPa 1.7 m/s 10.3 mm 17.8° 1009.2 hPa 1.5 m/s 19.8° 1011.0 hPa 3.5 m/s 10.3 mm
05:00 18.6° 1009.0 hPa 1.9 m/s 10.3 mm 18.6° 1008.9 hPa 1.9 m/s 18.8° 1010.6 hPa 2.5 m/s 10.3 mm
08:00 19.3° 1008.8 hPa 2.3 m/s 10.3 mm 19.3° 1008.5 hPa 2.2 m/s 19.2° 1011.8 hPa 2.9 m/s 10.3 mm
11:00 22.9° 1008.5 hPa 2.8 m/s 10.3 mm 22.6° 1008.2 hPa 2.7 m/s 26.0° 1012.0 hPa 4.3 m/s 10.3 mm
14:00 26.2° 1008.2 hPa 3.3 m/s 10.3 mm 26.0° 1007.9 hPa 3.1 m/s 28.7° 1011.5 hPa 5.8 m/s 10.3 mm
17:00 23.9° 1007.5 hPa 2.9 m/s 10.3 mm 23.6° 1007.2 hPa 2.7 m/s 27.1° 1009.9 hPa 5.6 m/s 10.3 mm
20:00 21.4° 1006.8 hPa 2.3 m/s 10.3 mm 21.2° 1006.6 hPa 2.3 m/s 23.0° 1008.5 hPa 2.7 m/s 10.3 mm
23:00 20.0° 1006.1 hPa 1.9 m/s 10.3 mm 19.8° 1006.0 hPa 1.7 m/s 21.6° 1007.5 hPa 4.3 m/s 10.3 mm
 07:04     19:02    Daglengte: 11:58 Vrijdag 25 Sep
02:00 18.6° 1005.2 hPa 1.2 m/s 10.4 mm 18.4° 1005.3 hPa 1.1 m/s 21.1° 1004.6 hPa 2.7 m/s 10.4 mm
05:00 19.4° 1003.9 hPa 3.0 m/s 10.4 mm 19.2° 1004.1 hPa 3.0 m/s 21.3° 1001.7 hPa 4.0 m/s 10.4 mm
08:00 20.1° 1002.7 hPa 5.0 m/s 10.4 mm 20.0° 1002.9 hPa 4.8 m/s 21.2° 1000.3 hPa 7.4 m/s 10.4 mm
11:00 22.2° 1001.3 hPa 5.9 m/s 10.4 mm 22.0° 1001.5 hPa 5.2 m/s 24.3° 998.9 hPa 13.2 m/s 10.4 mm
14:00 24.0° 999.9 hPa 6.2 m/s 10.4 mm 24.0° 1000.1 hPa 5.6 m/s 23.9° 998.0 hPa 12.9 m/s 10.4 mm
17:00 21.1° 999.1 hPa 5.4 m/s 10.4 mm 20.9° 999.2 hPa 4.9 m/s 23.2° 998.6 hPa 10.1 m/s 10.4 mm
20:00 18.0° 998.6 hPa 4.2 m/s 10.4 mm 17.9° 998.3 hPa 4.3 m/s 18.6° 1002.1 hPa 3.3 m/s 10.4 mm
23:00 15.8° 997.7 hPa 3.1 m/s 10.4 mm 15.8° 997.0 hPa 3.0 m/s 15.2° 1005.2 hPa 3.2 m/s 10.4 mm
 07:06     19:01    Daglengte: 11:55 Zaterdag 26 Sep
02:00 13.7° 996.6 hPa 1.8 m/s 10.4 mm 13.8° 995.8 hPa 1.8 m/s 12.8° 1005.5 hPa 2.2 m/s 10.4 mm
05:00 12.7° 997.2 hPa 2.8 m/s 10.4 mm 12.8° 996.5 hPa 2.8 m/s 12.1° 1004.4 hPa 2.5 m/s 10.4 mm
08:00 11.8° 997.8 hPa 3.6 m/s 10.4 mm 11.7° 997.3 hPa 3.8 m/s 13.4° 1003.1 hPa 1.1 m/s 10.4 mm
11:00 13.9° 998.7 hPa 4.7 m/s 10.4 mm 13.6° 998.5 hPa 4.8 m/s 17.1° 1001.9 hPa 2.5 m/s 10.4 mm
14:00 15.6° 999.6 hPa 5.5 m/s 11.4 mm 15.4° 999.6 hPa 5.9 m/s 17.7° 1000.0 hPa 0.5 m/s 11.4 mm
17:00 13.9° 1000.8 hPa 3.8 m/s 12.1 mm 13.9° 1001.1 hPa 4.0 m/s 14.4° 997.2 hPa 1.7 m/s 12.1 mm
20:00 12.7° 1002.0 hPa 2.0 m/s 12.1 mm 12.4° 1002.6 hPa 2.1 m/s 16.0° 995.1 hPa 0.9 m/s 12.1 mm
23:00 12.6° 1003.1 hPa 3.3 m/s 12.1 mm 12.2° 1003.9 hPa 3.2 m/s 17.7° 994.1 hPa 5.2 m/s 12.1 mm
 07:07     18:59    Daglengte: 11:52 Zondag 27 Sep
02:00 12.2° 1004.2 hPa 4.2 m/s 13.5 mm 11.9° 1005.2 hPa 4.2 m/s 15.0° 992.9 hPa 4.1 m/s 13.5 mm
05:00 11.6° 1005.8 hPa 2.9 m/s 14.8 mm 11.5° 1006.9 hPa 2.8 m/s 12.4° 993.6 hPa 4.1 m/s 14.8 mm
08:00 11.2° 1007.6 hPa 1.5 m/s 15.4 mm 11.1° 1008.6 hPa 1.3 m/s 12.4° 997.1 hPa 3.3 m/s 15.4 mm
14:00 19.5° 1009.5 hPa 2.4 m/s 15.4 mm 19.5° 1010.2 hPa 2.4 m/s 19.3° 1001.4 hPa 2.9 m/s 15.4 mm
20:00 13.9° 1011.6 hPa 1.7 m/s 15.5 mm 13.9° 1012.3 hPa 1.7 m/s 13.7° 1003.6 hPa 2.0 m/s 15.5 mm
 07:08     18:57    Daglengte: 11:49 Maandag 28 Sep
02:00 9.7° 1014.1 hPa 1.8 m/s 15.9 mm 9.5° 1014.9 hPa 1.9 m/s 11.9° 1005.7 hPa 0.6 m/s 15.9 mm
08:00 9.0° 1015.4 hPa 1.7 m/s 16.3 mm 8.7° 1016.1 hPa 1.6 m/s 12.6° 1007.6 hPa 2.6 m/s 16.3 mm
14:00 22.3° 1016.0 hPa 1.6 m/s 16.6 mm 22.6° 1016.5 hPa 1.7 m/s 19.4° 1010.0 hPa 1.1 m/s 16.6 mm
20:00 16.3° 1016.7 hPa 1.8 m/s 18.2 mm 16.5° 1017.1 hPa 1.5 m/s 14.1° 1012.4 hPa 5.3 m/s 18.2 mm
 07:09     18:55    Daglengte: 11:46 Dinsdag 29 Sep
02:00 15.1° 1017.8 hPa 3.8 m/s 18.2 mm 15.3° 1018.0 hPa 3.9 m/s 12.4° 1015.2 hPa 2.5 m/s 18.2 mm
08:00 14.0° 1018.1 hPa 1.6 m/s 18.5 mm 14.2° 1018.3 hPa 1.5 m/s 11.9° 1015.9 hPa 2.6 m/s 18.5 mm
14:00 19.1° 1016.1 hPa 3.1 m/s 18.7 mm 19.1° 1016.1 hPa 3.1 m/s 18.7 mm
20:00 14.1° 1015.9 hPa 2.5 m/s 18.8 mm 14.1° 1015.9 hPa 2.5 m/s 18.8 mm
 07:10     18:53    Daglengte: 11:43 Woensdag 30 Sep
02:00 13.5° 1016.7 hPa 0.9 m/s 0.8 mm
08:00 12.9° 1016.8 hPa 1.2 m/s 1.1 mm
14:00 20.8° 1016.4 hPa 1.5 m/s 1.3 mm
20:00 15.8° 1015.8 hPa 1.3 m/s 0.8 mm
 07:12     18:51    Daglengte: 11:39 Donderdag 01 Okt
02:00 13.9° 1015.9 hPa 0.8 m/s 1.2 mm
08:00 13.5° 1015.5 hPa 1.1 m/s 1.5 mm
14:00 20.4° 1014.9 hPa 1.5 m/s 1.8 mm
20:00 16.0° 1014.2 hPa 1.1 m/s 2.2 mm
 07:13     18:49    Daglengte: 11:36 Vrijdag 02 Okt
02:00 13.9° 1014.8 hPa 0.8 m/s 1.0 mm
08:00 13.3° 1015.4 hPa 1.1 m/s 0.7 mm
14:00 20.8° 1015.8 hPa 1.9 m/s 0.9 mm
20:00 15.7° 1015.5 hPa 1.3 m/s 0.6 mm
 07:14     18:48    Daglengte: 11:34 Zaterdag 03 Okt
02:00 13.3° 1016.2 hPa 0.4 m/s 0.3 mm
08:00 13.0° 1016.3 hPa 0.7 m/s 0.5 mm
14:00 21.8° 1016.5 hPa 1.0 m/s 0.2 mm
20:00 16.2° 1016.4 hPa 1.3 m/s 0.3 mm
 07:15     18:46    Daglengte: 11:31 Zondag 04 Okt
02:00 13.8° 1017.1 hPa 0.5 m/s 0.3 mm
08:00 13.3° 1017.3 hPa 0.6 m/s 0.3 mm
14:00 22.8° 1017.5 hPa 0.7 m/s 0.2 mm
20:00 17.1° 1017.1 hPa 1.2 m/s 0.6 mm
 07:16     18:44    Daglengte: 11:28 Maandag 05 Okt
02:00 14.7° 1017.5 hPa 0.8 m/s 0.2 mm
FMI Hirlam - 7.5 km EWN WRFDA - 12 km DWD ICON - 7 km GFS - 25 km Basiskaart






























































Updatetijd (Europe/Amsterdam) Resolutie Lengte Stap
FMI Hirlam 01:45, 07:45, 13:45, 19:45 7.5 km 49h 1h
EWN WRFDA 03:45, 09:45, 15:45, 21:45 12 km 73h 1h
DWD ICON 23:45, 05:45, 11:45, 17:45 7 km 75h 1h
GFS 01:45, 07:45, 13:45, 19:45 25 km 237h 3h
30+ mm
25-30 mm
20-25 mm
15-20 mm
10-15 mm
6-10 mm
4-6 mm
2-4 mm
1-2 mm
0.5-1 mm
0.2-0.5 mm
0.1-0.2 mm
30+ mm
25-30 mm
20-25 mm
15-20 mm
10-15 mm
6-10 mm
4-6 mm
2-4 mm
1-2 mm
0.5-1 mm
0.2-0.5 mm
0.1-0.2 mm
Sneeuwval
Natte sneeuw
Hagel
Vorst
30+ mm
25-30 mm
20-25 mm
15-20 mm
10-15 mm
6-10 mm
4-6 mm
2-4 mm
1-2 mm
0.5-1 mm
0.2-0.5 mm
0.1-0.2 mm
Sneeuwval
Natte sneeuw
Hagel
Vorst
Onweer
50 mm
40 mm
30 mm
26 mm
22 mm
18 mm
14 mm
10 mm
9 mm
8 mm
7 mm
6 mm
5 mm
4.5 mm
4 mm
3.5 mm
3 mm
2.5 mm
2 mm
1.5 mm
1 mm
0.8 mm
0.6 mm
0.4 mm
0.2 mm
0.05 mm
35°
30°
25°
20°
15°
10°
-5°
-10°
-15°
-20°
-25°
-30°
-35°
33> m/s
29 m/s
25 m/s
21 m/s
17 m/s
14 m/s
11 m/s
8 m/s
5 m/s
3 m/s
0 m/s
2600 J/kg
2400 J/kg
2200 J/kg
2000 J/kg
1800 J/kg
1600 J/kg
1400 J/kg
1200 J/kg
1000 J/kg
800 J/kg
600 J/kg
400 J/kg
200 J/kg
70 dBZ
65 dBZ
60 dBZ
55 dBZ
50 dBZ
45 dBZ
40 dBZ
35 dBZ
30 dBZ
25 dBZ
20 dBZ
15 dBZ
10 dBZ
5 dBZ
-1 K
-2 K
-3 K
-4 K
-5 K
-6 K
-7 K
-8 K
-9 K
950 m²/s²
900 m²/s²
850 m²/s²
800 m²/s²
750 m²/s²
700 m²/s²
650 m²/s²
600 m²/s²
550 m²/s²
500 m²/s²
450 m²/s²
400 m²/s²
350 m²/s²
300 m²/s²
250 m²/s²
200 m²/s²
150 m²/s²
100 m²/s²
46 m/s
44 m/s
42 m/s
40 m/s
38 m/s
36 m/s
34 m/s
32 m/s
30 m/s
28 m/s
26 m/s
24 m/s
22 m/s
20 m/s
16 m/s
12 m/s
8 m/s
4 m/s
30 m/s
28 m/s
26 m/s
24 m/s
22 m/s
20 m/s
18 m/s
16 m/s
14 m/s
12 m/s
10 m/s
8 m/s
6 m/s
4 m/s
2 m/s
3.0
2.8
2.6
2.4
2.2
2.0
1.8
1.6
1.4
1.2
1.0
0.8
0.6
0.4
0.2
15
14
13
12
11
10
9
8
7
6
5
4
3
2
1
90%
80%
70%
60%
50%
40%
30%
20%
10%
42
40
38
36
34
32
30
28
26
24
22
20
18
16
14
12
90+ cm
80-90 cm
70-80 cm
60-70 cm
50-60 cm
40-50 cm
30-40 cm
20-30 cm
10-20 cm
1-10 cm
Sneeuwval
Natte sneeuw
Regen
>120 mm
115 mm
110 mm
105 mm
100 mm
95 mm
90 mm
85 mm
80 mm
75 mm
70 mm
65 mm
60 mm
55 mm
50 mm
45 mm
45 mm
40 mm
35 mm
30 mm
25 mm
20 mm
15 mm
10 mm
5 mm
0.1 mm
960 hPa
880 hPa
800 hPa
720 hPa
640 hPa
560 hPa
584 gpdm
568 gpdm
552 gpdm
536 gpdm
520 gpdm
504 gpdm
488 gpdm